DMSP 5D-2 F11 DEB, 29069

Orbit data source: Space-Track

DMSP 5D-2 F11 DEB, 29069 is space debris in SSO originally from a launch on Thu, 28 Nov 1991 UTC launched from the Air Force Western Test Range (AFWTR). Debris objects in space refer to the collection of defunct objects orbiting the Earth. Examples of debris include non-operational satellites, rocket bodies, and fragments generated from explosions, collisions, or faulty payload assembly.

Loading next visibility...
Identifier
29069, 1991-082BQ
Orbit
SSO
Country
Flag of USUS
Related business
Manufacturer
Unknown
Mission
Spacecraft
Bus & Motor
Unknown
Mass
Unknown
Launch date (UTC)
1991-11-28 (34 years ago)
Launch vehicle
Unknown
Launch site
Air Force Western Test Range (AFWTR)
Object type
Payload
Rocket body
Debris
Shape & HBR
Unknown shape, 0.1 m
Radar Cross Section
Small (<0.1 m²)

Expand to show TLE details & history
Last TLE update: 1 day ago

TLE from 1 day ago
0 DMSP 5D-2 F11 DEB
1 29069U 91082BQ  26120.16707994  .00006435  00000-0  18834-2 0  9994
2 29069  98.9135 197.4631 0064702 156.1685 236.3153 14.43081473109856
Epoch: 2026-04-30T04:00Z
TLE epoch observation values (Epoch: 2026-04-30T04:00:35.706Z)
Latitude
31.49865°
Longitude
-86.28874°
Altitude
778.138 km
Speed
7.454 km/s
True Right ascension
12h 47m 54s
True Declination
31° 20' 46"
Sunlit
Object was in full shadow at epoch
Visualization orbit readout
Latitude
Unknown
Longitude
Unknown
Altitude
Unknown
Speed
Unknown
Apparent Right ascension
Unknown
Apparent Declination
Unknown
Sunlit
N/A
Visualization observer readout
Local Sidereal Time
21:56:10
Azimuth
Unknown
Elevation
Unknown
Doppler factor
Unknown
Orbital elements
Apogee altitude
791.564 km
Perigee altitude
699.382 km
Semi-major axis
7,123.61 km
Eccentricity
0.00647
Inclination
98.9135°
RAAN
197.4631°
Arg. of periapsis
156.1685°
True anomaly
235.70112°
Mean anomaly
236.3153°
Eccentric anomaly
236.00793°
Mean motion
3.60988 °/min
Orbital period
99.73 mins
BSTAR
0.0018834
Loading maneuver chart data...
Computing Atmospheric mass density...
Loading historical data...
Loading historical data...
Loading historical data...
Loading historical data...
Loading historical data...
Loading historical data...
Loading historical data...

Documentation

Showing up to 5 results
|